Home   Weather   Waterford   Past weeks

Flag for Ireland Past Weather in Waterford, Ireland — Yesterday and Last 2 Weeks

Now
45 °F

Sprinkles. Passing clouds.


Feels Like: 39 °F
Forecast: N/A
Wind: 12 mph from Southeast

Location: Cork Airport

Current Time: Dec 3, 2016 at 7:47:21 pm

Latest Report: Dec 3, 2016 at 7:00 pm


Visibility: N/A

Pressure: 30.12 "Hg

Humidity: 93%

Dew Point: 43 °F

Location of WaterfordLocation

Past Weather in Waterford — Graph

°F

Waterford Temperature Yesterday

Maximum temperature yesterday: 48 °F (at 2:00 pm)
Minimum temperature yesterday: 41 °F (at 6:30 am)
Average temperature yesterday: 44 °F

High & Low Weather Summary for the Past Weeks

 TemperatureHumidityPressure
High48 °F (Nov 27, 3:00 pm)100% (Nov 19, 4:30 pm)30.57 "Hg (Nov 19, 4:30 pm)
Low30 °F (Nov 20, 2:30 am)66% (Nov 20, 1:30 pm)29.21 "Hg (Nov 19, 8:00 pm)
Average39 °F86%30.06 "Hg
* Reported Nov 18 7:00 pm — Dec 3 7:00 pm, Waterford, Weather by CustomWeather, © 2016

Note: Actual official high and low records may vary slightly from our data, if they occured in-between our weather recording intervals... More about our weather records

Advertising

Waterford Weather History for the Previous 24 Hours

Scroll right to see more
 ConditionsComfort  
Time TempWeatherWind HumidityBarometerVisibility
7:00 pm
Sat, Dec 3
45 °FSprinkles. Passing clouds.12 mph93%30.12 "HgN/A
6:30 pm45 °FSprinkles. Partly cloudy.14 mph93%30.12 "HgN/A
6:00 pm46 °FPassing clouds.14 mph87%30.12 "HgN/A
5:30 pm46 °FPartly cloudy.15 mph87%30.12 "HgN/A
5:00 pm46 °FPassing clouds.15 mph87%30.12 "HgN/A
4:30 pm46 °FPartly cloudy.14 mph87%30.12 "HgN/A
4:00 pm46 °FSprinkles. Broken clouds.14 mph87%30.12 "HgN/A
3:30 pm46 °FLight rain. Cloudy.17 mph87%30.12 "HgN/A
3:00 pm46 °FMostly cloudy.13 mph87%30.12 "HgN/A
2:30 pm46 °FOvercast.13 mph87%30.12 "HgN/A
2:00 pm46 °FOvercast.13 mph87%30.12 "HgN/A
1:30 pm46 °FOvercast.12 mph82%30.12 "HgN/A
1:00 pm46 °FOvercast.13 mph82%30.12 "HgN/A
12:30 pm48 °FOvercast.13 mph82%30.12 "HgN/A
12:00 pm46 °FOvercast.13 mph82%30.15 "HgN/A
11:30 am46 °FOvercast.14 mph82%30.15 "HgN/A
11:00 am46 °FOvercast.8 mph87%30.15 "HgN/A
10:30 am46 °FOvercast.7 mph87%30.15 "HgN/A
10:00 am46 °FOvercast.8 mph82%30.15 "HgN/A
9:30 am46 °FPartly sunny.7 mph76%30.15 "HgN/A
9:00 am46 °FPartly sunny.6 mph87%30.15 "HgN/A
8:00 am45 °FPartly cloudy.8 mph81%30.15 "HgN/A
7:30 am45 °FPassing clouds.9 mph81%30.15 "HgN/A
7:00 am45 °FPassing clouds.10 mph76%30.15 "HgN/A
6:30 am45 °FPassing clouds.9 mph76%30.15 "HgN/A
6:00 am45 °FPassing clouds.7 mph76%30.15 "HgN/A
5:30 am45 °FPartly cloudy.7 mph71%30.15 "HgN/A
5:00 am45 °FPassing clouds.7 mph71%30.15 "HgN/A
4:00 am45 °FPassing clouds.7 mph76%30.18 "HgN/A
3:00 am45 °FPassing clouds.7 mph71%30.18 "HgN/A
2:30 am45 °FPassing clouds.10 mph71%30.18 "HgN/A
2:00 am45 °FPassing clouds.9 mph71%30.18 "HgN/A
1:30 am45 °FPassing clouds.10 mph71%30.18 "HgN/A
1:00 am45 °FPassing clouds.8 mph76%30.21 "HgN/A
12:30 am45 °FPassing clouds.7 mph71%30.21 "HgN/A
12:00 am45 °FPassing clouds.8 mph71%30.21 "HgN/A
11:30 pm
Fri, Dec 2
45 °FPassing clouds.9 mph71%30.21 "HgN/A
11:00 pm45 °FPassing clouds.8 mph71%30.21 "HgN/A
10:30 pm45 °FPassing clouds.9 mph71%30.21 "HgN/A
10:00 pm45 °FPassing clouds.6 mph71%30.21 "HgN/A
9:30 pm45 °FPassing clouds.10 mph71%30.24 "HgN/A
9:00 pm46 °FPassing clouds.9 mph66%30.24 "HgN/A
8:30 pm46 °FPassing clouds.9 mph66%30.24 "HgN/A
8:00 pm46 °FPassing clouds.12 mph66%30.24 "HgN/A
7:30 pm45 °FPassing clouds.9 mph71%30.24 "HgN/A
7:00 pm46 °FPartly cloudy.6 mph71%30.24 "HgN/A
Weather by CustomWeather, © 2016

See weather overviewHow to use our weather pages